CW8443 Weather Reports


Display with metric or nautical units.
time (UTC)temp
F
wind
direction
speed
MPH
gust
MPH
rain 1hr
in
rain 24hr
in
rain mn
in
humidity
%
barometer
mb
20260506155750 63 217 0.0 0.0 0.00 0.00 0.00 81 1012.5
20260506155240 63 217 0.0 0.0 0.00 0.00 0.00 81 1012.5
20260506154245 63 217 0.0 0.0 0.00 0.00 0.00 81 1012.7
20260506153237 63 221 0.0 0.0 0.00 0.00 0.00 81 1012.7
20260506153141 63 218 0.0 0.0 0.00 0.00 0.00 81 1012.7
20260506152239 63 217 0.0 0.0 0.00 0.00 0.00 81 1012.9
20260506151752 63 224 0.0 0.0 0.00 0.00 0.00 81 1012.9
20260506150751 63 223 0.0 0.0 0.00 0.00 0.00 81 1013.0
20260506150246 63 220 0.0 0.0 0.00 0.00 0.00 81 1013.0
20260506150133 63 220 0.0 0.0 0.00 0.00 0.00 81 1013.0
20260506145751 63 218 0.0 0.0 0.00 0.00 0.00 81 1013.2
20260506145241 63 220 0.0 0.0 0.00 0.00 0.00 81 1013.2
20260506143750 63 216 0.0 0.0 0.00 0.00 0.00 81 1013.2
20260506143247 63 224 0.0 0.0 0.00 0.00 0.00 81 1013.2
20260506142735 63 220 0.0 0.0 0.00 0.00 0.00 81 1013.2
20260506142245 63 218 0.0 0.0 0.00 0.00 0.00 81 1013.2
20260506141247 63 218 0.0 0.0 0.00 0.00 0.00 80 1013.4
20260506140742 63 227 0.0 0.0 0.00 0.00 0.00 80 1013.4
20260506140240 63 228 0.0 0.0 0.00 0.00 0.00 80 1013.4
20260506140144 63 218 0.0 0.0 0.00 0.00 0.00 80 1013.4
20260506135747 63 220 0.0 0.0 0.00 0.00 0.00 80 1013.3
20260506135237 63 220 0.0 0.0 0.00 0.00 0.00 80 1013.3
20260506134751 63 220 0.0 0.0 0.00 0.00 0.00 80 1013.3
20260506134241 63 218 0.0 0.0 0.00 0.00 0.00 80 1013.8
20260506133751 63 218 0.0 0.0 0.00 0.00 0.00 80 1013.8
20260506133248 63 217 0.0 0.0 0.00 0.00 0.00 80 1013.8
20260506133132 63 221 0.0 0.0 0.00 0.00 0.00 80 1013.8
20260506132753 63 216 0.0 0.0 0.00 0.00 0.00 80 1013.8
20260506132242 63 217 0.0 0.0 0.00 0.00 0.00 80 1013.8
20260506131737 63 241 0.0 0.0 0.00 0.00 0.00 79 1013.8
20260506131246 64 244 0.0 0.0 0.00 0.00 0.00 79 1013.9
20260506130739 64 245 0.0 0.0 0.00 0.00 0.00 79 1013.9
20260506130238 64 255 0.0 0.0 0.00 0.00 0.00 79 1013.9
20260506130142 64 247 0.0 0.0 0.00 0.00 0.00 79 1013.9
20260506125242 64 242 0.0 0.0 0.00 0.00 0.00 78 1013.7
20260506124736 64 209 0.0 0.0 0.00 0.00 0.00 78 1013.7
20260506124245 64 207 0.0 0.0 0.00 0.00 0.00 77 1013.7
20260506123249 64 211 0.0 0.0 0.00 0.00 0.00 77 1013.7
20260506123133 64 210 0.0 0.0 0.00 0.00 0.00 77 1013.7
20260506122735 64 218 0.0 0.0 0.00 0.00 0.00 77 1013.6
20260506121746 64 207 0.0 0.0 0.00 0.00 0.00 76 1013.6
20260506121237 64 213 0.0 0.0 0.00 0.00 0.00 76 1013.9
20260506120254 64 241 0.0 0.0 0.00 0.00 0.00 75 1013.9
20260506120138 64 134 0.0 0.0 0.00 0.00 0.00 75 1013.9
20260506115736 64 134 0.0 0.0 0.00 0.00 0.00 75 1013.6
20260506115246 64 134 0.0 0.0 0.00 0.00 0.00 75 1013.6
20260506114741 64 134 0.0 0.0 0.00 0.00 0.00 74 1013.6
20260506114253 64 135 0.0 0.0 0.00 0.00 0.00 74 1013.7
20260506113743 64 151 0.0 0.0 0.00 0.00 0.00 74 1013.7
20260506113241 64 158 0.0 0.0 0.00 0.00 0.00 74 1013.7
20260506113145 64 158 0.0 0.0 0.00 0.00 0.00 74 1013.7
20260506112747 64 196 0.0 0.0 0.00 0.00 0.00 74 1013.5
20260506112236 64 159 0.0 0.0 0.00 0.00 0.00 74 1013.5
20260506111750 64 161 0.0 0.0 0.00 0.00 0.00 74 1013.5
20260506111240 64 163 0.0 0.0 0.00 0.00 0.00 74 1013.7
20260506110753 64 158 0.0 0.0 0.00 0.00 0.00 74 1013.7
20260506110237 64 158 0.0 0.0 0.00 0.00 0.00 74 1013.7
20260506110140 64 186 0.0 0.0 0.00 0.00 0.00 74 1013.7
20260506105739 64 196 0.0 0.0 0.00 0.00 0.00 74 1013.6
20260506104747 65 132 0.0 0.0 0.00 0.00 0.00 73 1013.6
20260506103253 65 234 0.0 0.0 0.00 0.00 0.00 73 1014.0
20260506102736 65 230 0.0 0.0 0.00 0.00 0.00 73 1013.8
20260506102242 65 240 0.0 0.0 0.00 0.00 0.00 72 1013.8
20260506101736 65 162 0.0 0.0 0.00 0.00 0.00 72 1013.8
20260506101239 65 145 0.0 0.0 0.00 0.00 0.00 72 1013.7
20260506100753 65 168 0.0 0.0 0.00 0.00 0.00 72 1013.7
20260506100251 65 155 0.0 0.0 0.00 0.00 0.00 72 1013.7
20260506100135 65 196 0.0 0.0 0.00 0.00 0.00 72 1013.7
20260506095248 65 173 0.0 0.0 0.00 0.00 0.00 71 1013.6
20260506094742 65 151 0.0 0.0 0.00 0.00 0.00 71 1013.6
20260506094252 65 173 0.0 0.0 0.00 0.00 0.00 70 1013.7
20260506093742 65 162 0.0 0.0 0.00 0.00 0.00 70 1013.7
20260506093237 65 139 0.0 0.0 0.00 0.00 0.00 69 1013.7
20260506093145 65 162 0.0 0.0 0.00 0.00 0.00 69 1013.7
20260506092240 65 179 0.0 0.0 0.00 0.00 0.00 69 1013.8
20260506091736 65 128 0.0 0.0 0.00 0.00 0.00 68 1013.8
20260506090752 65 211 0.0 0.0 0.00 0.00 0.00 68 1013.9
20260506090251 65 152 0.0 0.0 0.00 0.00 0.00 68 1013.9
20260506090135 65 169 0.0 0.0 0.00 0.00 0.00 68 1013.9
20260506085751 65 168 0.0 0.0 0.00 0.00 0.00 68 1013.6
20260506084742 66 182 0.0 0.0 0.00 0.00 0.00 68 1013.6
20260506084252 66 146 0.0 0.0 0.00 0.00 0.00 68 1013.8
20260506083745 66 189 0.0 0.0 0.00 0.00 0.00 68 1013.8
20260506083245 66 121 0.0 0.0 0.00 0.00 0.00 67 1013.8
20260506083129 66 180 0.0 0.0 0.00 0.00 0.00 67 1013.8
20260506082751 66 190 0.0 0.0 0.00 0.00 0.00 67 1013.6
20260506082241 66 185 0.0 0.0 0.00 0.00 0.00 66 1013.6
20260506081738 66 166 0.0 0.0 0.00 0.00 0.00 66 1013.6
20260506081249 66 235 0.0 0.0 0.00 0.00 0.00 66 1013.8
20260506080241 66 163 0.0 0.0 0.00 0.00 0.00 65 1013.8
20260506080131 66 186 0.0 0.0 0.00 0.00 0.00 65 1013.8
20260506073258 67 187 0.0 0.0 0.00 0.00 0.00 64 1013.9
20260506072750 67 173 0.0 0.0 0.00 0.00 0.00 63 1013.8
20260506072239 67 154 0.0 0.0 0.00 0.00 0.00 63 1013.8
20260506071752 67 161 0.0 0.0 0.00 0.00 0.00 62 1013.8
20260506071242 67 138 0.0 0.0 0.00 0.00 0.00 62 1013.8
20260506070755 67 183 0.0 0.0 0.00 0.00 0.00 62 1013.8
20260506070250 68 141 0.0 0.0 0.00 0.00 0.00 62 1013.8
20260506070136 68 145 0.0 0.0 0.00 0.00 0.00 61 1013.8
20260506062240 69 134 0.0 0.0 0.00 0.00 0.00 59 1013.9
20260506061753 69 152 0.0 0.0 0.00 0.00 0.00 58 1013.9
20260506061242 69 196 0.0 0.0 0.00 0.00 0.00 59 1014.2
20260506060242 69 202 0.0 0.0 0.00 0.00 0.00 59 1014.2
20260506060129 69 127 0.0 0.0 0.00 0.00 0.00 59 1014.2
20260506051240 68 234 0.0 0.0 0.00 0.00 0.00 60 1014.5
20260506050143 68 183 0.0 0.0 0.00 0.00 0.00 60 1014.5
20260506044752 68 173 0.0 0.0 0.00 0.00 0.00 59 1014.8
20260506043737 68 151 0.0 0.0 0.00 0.00 0.00 58 1015.1
20260506042241 68 213 0.0 0.0 0.00 0.00 0.00 57 1015.2
20260506041250 68 121 0.0 0.0 0.00 0.00 0.00 57 1015.4
20260506040746 68 186 0.0 0.0 0.00 0.00 0.00 56 1015.4
20260506040243 69 182 0.0 0.0 0.00 0.00 0.00 55 1015.4
20260506040147 69 180 0.0 0.0 0.00 0.00 0.00 55 1015.4
20260506035748 68 138 0.0 0.0 0.00 0.00 0.00 56 1015.8
20260506035238 68 182 0.0 0.0 0.00 0.00 0.00 56 1015.8
20260506034250 69 228 0.0 0.0 0.00 0.00 0.00 55 1015.9
20260506033738 69 158 0.0 0.0 0.00 0.00 0.00 55 1015.9
20260506033258 69 149 0.0 0.0 0.00 0.00 0.00 55 1015.9
20260506032741 68 186 0.0 0.0 0.00 0.00 0.00 55 1015.8
20260506032250 68 155 0.0 0.0 0.00 0.00 0.00 55 1015.8
20260506031745 69 186 0.0 0.0 0.00 0.00 0.00 55 1015.8
20260506031238 69 183 0.0 0.0 0.00 0.00 0.00 55 1015.9
20260506030737 69 228 0.0 0.0 0.00 0.00 0.00 55 1015.9
20260506030238 68 144 0.0 0.0 0.00 0.00 0.00 54 1015.9
20260506030143 69 163 0.0 0.0 0.00 0.00 0.00 54 1015.9
20260506025241 69 186 0.0 0.0 0.00 0.00 0.00 53 1016.0
20260506024736 69 158 0.0 0.0 0.00 0.00 0.00 54 1016.0
20260506024244 69 145 0.0 0.0 0.00 0.00 0.00 53 1016.3
20260506023749 69 226 0.0 0.0 0.00 0.00 0.00 53 1016.3
20260506023246 69 186 0.0 0.0 0.00 0.00 0.00 52 1016.3
20260506023130 69 183 0.0 0.0 0.00 0.00 0.00 52 1016.3
20260506022751 69 186 0.0 0.0 0.00 0.00 0.00 52 1016.7
20260506022243 69 313 0.0 0.0 0.00 0.00 0.00 52 1016.7
20260506021249 68 139 0.0 0.0 0.00 0.00 0.00 53 1016.9
20260506020742 68 173 0.0 0.0 0.00 0.00 0.00 53 1016.9
20260506020256 68 237 0.0 0.0 0.00 0.00 0.00 52 1016.9
20260506020140 68 186 0.0 0.0 0.00 0.00 0.00 52 1016.9
20260506015740 68 131 0.0 0.0 0.00 0.00 0.00 52 1017.3
20260506015245 67 128 0.0 0.0 0.00 0.00 0.00 51 1017.3
20260506014739 67 111 0.0 0.0 0.00 0.00 0.00 51 1017.3
20260506014248 66 231 0.0 0.0 0.00 0.00 0.00 52 1017.5
20260506013736 66 144 0.0 0.0 0.00 0.00 0.00 50 1017.5
20260506013146 66 216 0.0 0.0 0.00 0.00 0.00 50 1017.5
20260506012749 65 28 0.0 0.0 0.00 0.00 0.00 51 1017.9
20260506012242 65 28 0.0 0.0 0.00 0.00 0.00 51 1017.9
20260506011235 64 323 0.0 0.0 0.00 0.00 0.00 52 1018.0
20260506010751 64 327 0.0 0.0 0.00 0.00 0.00 52 1018.0
20260506010247 64 2 0.0 0.0 0.00 0.00 0.00 51 1018.0
20260506010135 64 4 0.0 0.0 0.00 0.00 0.00 52 1018.0
20260506005247 63 2 0.0 0.0 0.00 0.00 0.00 52 1018.1
20260506004741 63 2 0.0 0.0 0.00 0.00 0.00 52 1018.1
20260506004251 63 2 0.0 0.0 0.00 0.00 0.00 52 1018.3
20260506003243 62 2 0.0 0.0 0.00 0.00 0.00 54 1018.3
20260506002751 61 2 0.0 0.0 0.00 0.00 0.00 54 1018.5
20260506002240 61 4 0.0 0.0 0.00 0.00 0.00 54 1018.5
20260506001737 61 2 0.0 0.0 0.00 0.00 0.00 54 1018.5
20260506001243 61 1 0.0 0.0 0.00 0.00 0.00 54 1018.6
20260506000743 61 2 0.0 0.0 0.00 0.00 0.00 54 1018.6
20260506000241 61 1 0.0 0.0 0.00 0.00 0.00 54 1018.6
20260506000145 61 1 0.0 0.0 0.00 0.00 0.00 54 1018.6
20260505235747 61 1 0.0 0.0 0.00 0.00 0.00 54 1018.6
20260505235237 61 1 0.0 0.0 0.00 0.00 0.00 55 1018.6
20260505234752 61 1 0.0 0.0 0.00 0.00 0.00 54 1018.6
20260505234244 61 1 0.0 0.0 0.00 0.00 0.00 54 1018.6
20260505233735 61 2 0.0 0.0 0.00 0.00 0.00 55 1018.6
20260505233252 61 360 0.0 0.0 0.00 0.00 0.00 54 1018.6
20260505233136 61 5 0.0 0.0 0.00 0.00 0.00 54 1018.6
20260505232739 61 14 0.0 0.0 0.00 0.00 0.00 54 1018.7
20260505232245 61 12 0.0 0.0 0.00 0.00 0.00 54 1018.7
20260505231740 61 14 0.0 0.0 0.00 0.00 0.00 56 1018.7
20260505231250 60 25 0.0 0.0 0.00 0.00 0.00 56 1018.5
20260505230744 60 357 0.0 0.0 0.00 0.00 0.00 56 1018.5
20260505230243 60 353 0.0 0.0 0.00 0.00 0.00 58 1018.5
20260505230127 60 2 0.0 0.0 0.00 0.00 0.00 58 1018.5
20260505225749 59 4 0.0 0.0 0.00 0.00 0.00 58 1018.7
20260505225238 59 347 0.0 0.0 0.00 0.00 0.00 59 1018.7
20260505224245 59 347 0.0 0.0 0.00 0.00 0.00 60 1018.5
20260505223735 59 347 0.0 0.0 0.00 0.00 0.00 60 1018.5
20260505223250 58 347 0.0 0.0 0.00 0.00 0.00 60 1018.5
20260505222738 58 348 0.0 0.0 0.00 0.00 0.00 60 1018.7
20260505222246 58 316 0.0 0.0 0.00 0.00 0.00 60 1018.7
20260505221740 58 316 0.0 0.0 0.00 0.00 0.00 60 1018.7
20260505221252 58 317 0.0 0.0 0.00 0.00 0.00 60 1018.8
20260505220746 58 316 0.0 0.0 0.00 0.00 0.00 60 1018.8
20260505220245 57 316 0.0 0.0 0.00 0.00 0.00 60 1018.8
20260505220129 57 316 0.0 0.0 0.00 0.00 0.00 60 1018.8
20260505215750 57 313 0.0 0.0 0.00 0.00 0.00 61 1018.6
20260505215240 57 307 0.0 0.0 0.00 0.00 0.00 61 1018.6
20260505214753 57 307 0.0 0.0 0.00 0.00 0.00 62 1018.6
20260505214244 57 302 0.0 0.0 0.00 0.00 0.00 62 1018.8
20260505213751 57 303 0.0 0.0 0.00 0.00 0.00 63 1018.8
20260505213250 56 261 0.0 0.0 0.00 0.00 0.00 64 1018.8
20260505213135 56 251 0.0 0.0 0.00 0.00 0.00 64 1018.8
20260505212740 56 251 0.0 0.0 0.00 0.00 0.00 65 1018.7
20260505212252 56 255 0.0 0.0 0.00 0.00 0.00 66 1018.7
20260505211746 56 259 0.0 0.0 0.00 0.00 0.00 67 1018.7
20260505211240 55 235 0.0 0.0 0.00 0.00 0.00 68 1018.5
20260505210739 55 233 0.0 0.0 0.00 0.00 0.00 69 1018.5
20260505210239 55 234 0.0 0.0 0.00 0.00 0.00 69 1018.5
20260505210143 55 235 0.0 0.0 0.00 0.00 0.00 69 1018.5
20260505205745 55 234 0.0 0.0 0.00 0.00 0.00 69 1018.7
20260505205251 55 234 0.0 0.0 0.00 0.00 0.00 69 1018.7
20260505204744 55 240 0.0 0.0 0.00 0.00 0.00 69 1018.7
20260505204235 55 241 0.0 0.0 0.00 0.00 0.00 70 1018.5
20260505203745 55 237 0.0 0.0 0.00 0.00 0.00 70 1018.5
20260505203242 55 233 0.0 0.0 0.00 0.00 0.00 70 1018.5
20260505203145 54 233 0.0 0.0 0.00 0.00 0.00 70 1018.5
20260505202243 54 233 0.0 0.0 0.00 0.00 0.00 70 1018.6
20260505201737 54 234 0.0 0.0 0.00 0.00 0.00 70 1018.6
20260505201246 54 234 0.0 0.0 0.00 0.00 0.00 70 1018.4
20260505200739 54 235 0.0 0.0 0.00 0.00 0.00 70 1018.4
20260505200238 54 234 0.0 0.0 0.00 0.00 0.00 70 1018.4
20260505200142 54 234 0.0 0.0 0.00 0.00 0.00 70 1018.4
20260505195236 54 233 0.0 0.0 0.00 0.00 0.00 69 1018.5
20260505194244 54 233 0.0 0.0 0.00 0.00 0.00 69 1018.2
20260505193735 54 234 0.0 0.0 0.00 0.00 0.00 69 1018.2
20260505193254 54 233 0.0 0.0 0.00 0.00 0.00 68 1018.2
20260505193137 54 234 0.0 0.0 0.00 0.00 0.00 68 1018.2
20260505192740 54 233 0.0 0.0 0.00 0.00 0.00 68 1018.2
20260505192250 54 234 0.0 0.0 0.00 0.00 0.00 68 1018.2
20260505191744 54 234 0.0 0.0 0.00 0.00 0.00 68 1018.2
20260505191236 54 233 0.0 0.0 0.00 0.00 0.00 68 1018.0
20260505190746 54 233 0.0 0.0 0.00 0.00 0.00 67 1018.0
20260505190248 54 233 0.0 0.0 0.00 0.00 0.00 67 1018.0
20260505190132 54 234 0.0 0.0 0.00 0.00 0.00 67 1018.0
20260505185734 54 233 0.0 0.0 0.00 0.00 0.00 67 1018.0
20260505185246 54 233 0.0 0.0 0.00 0.00 0.00 67 1018.0
20260505184740 54 233 0.0 0.0 0.00 0.00 0.00 67 1018.0
20260505184248 54 234 0.0 0.0 0.00 0.00 0.00 66 1018.0
20260505183741 54 234 0.0 0.0 0.00 0.00 0.00 66 1018.0
20260505183239 54 234 0.0 0.0 0.00 0.00 0.00 66 1018.0
20260505183142 54 234 0.0 0.0 0.00 0.00 0.00 65 1018.0
20260505182744 54 234 0.0 0.0 0.00 0.00 0.00 65 1018.1
20260505181746 55 234 0.0 0.0 0.00 0.00 0.00 65 1018.1
20260505180741 55 235 0.0 0.0 0.00 0.00 0.00 64 1018.0
20260505180239 55 235 0.0 0.0 0.00 0.00 0.00 64 1018.0
20260505180142 55 238 0.0 0.0 0.00 0.00 0.00 64 1018.0
20260505175745 55 234 0.0 0.0 0.00 0.00 0.00 64 1017.9
20260505175236 55 234 0.0 0.0 0.00 0.00 0.00 64 1017.9
20260505174752 55 234 0.0 0.0 0.00 0.00 0.00 63 1017.9
20260505174241 55 235 0.0 0.0 0.00 0.00 0.00 63 1017.9
20260505173750 56 235 0.0 0.0 0.00 0.00 0.00 62 1018.0
20260505173138 56 238 0.0 0.0 0.00 0.00 0.00 62 1018.0
20260505172736 56 238 0.0 0.0 0.00 0.00 0.00 61 1018.0
20260505171744 56 238 0.0 0.0 0.00 0.00 0.00 59 1018.0
20260505171235 56 241 0.0 0.0 0.00 0.00 0.00 58 1018.0
20260505170749 56 234 0.0 0.0 0.00 0.00 0.00 56 1018.0
20260505170245 56 240 0.0 0.0 0.00 0.00 0.00 56 1018.0
20260505165752 56 240 0.0 0.0 0.00 0.00 0.00 55 1018.0
20260505165242 56 237 0.0 0.0 0.00 0.00 0.00 55 1018.0
20260505164737 57 238 0.0 0.0 0.00 0.00 0.00 54 1018.0
20260505164244 57 240 0.0 0.0 0.00 0.00 0.00 54 1018.0
20260505163753 57 238 0.0 0.0 0.00 0.00 0.00 54 1018.0
20260505163252 57 240 0.0 0.0 0.00 0.00 0.00 54 1018.0
20260505163135 57 238 0.0 0.0 0.00 0.00 0.00 54 1018.0
20260505162254 57 235 0.0 0.0 0.00 0.00 0.00 53 1018.0
20260505161748 58 235 0.0 0.0 0.00 0.00 0.00 52 1018.0
20260505161237 58 237 0.0 0.0 0.00 0.00 0.00 52 1018.0
20260505160752 58 234 0.0 0.0 0.00 0.00 0.00 51 1018.0
20260505160248 58 234 0.0 0.0 0.00 0.00 0.00 50 1018.0
20260505160132 58 234 0.0 0.0 0.00 0.00 0.00 50 1018.0
20260505153251 59 237 0.0 0.0 0.00 0.00 0.00 49 1018.0
20260505153137 59 241 0.0 0.0 0.00 0.00 0.00 49 1018.0
20260505152737 59 237 0.0 0.0 0.00 0.00 0.00 49 1018.2
20260505152246 59 233 0.0 0.0 0.00 0.00 0.00 48 1018.2
20260505151742 59 234 0.0 0.0 0.00 0.00 0.00 48 1018.2
20260505150746 59 242 0.0 0.0 0.00 0.00 0.00 47 1018.2
20260505150244 59 213 0.0 0.0 0.00 0.00 0.00 47 1018.2
20260505150132 59 170 0.0 0.0 0.00 0.00 0.00 47 1018.2
20260505140244 60 155 0.0 0.0 0.00 0.00 0.00 47 1018.1
20260505130243 60 179 0.0 0.0 0.00 0.00 0.00 55 1018.0
20260505130129 60 163 0.0 0.0 0.00 0.00 0.00 55 1018.0
20260505124738 60 189 0.0 0.0 0.00 0.00 0.00 56 1017.9
20260505124247 60 179 0.0 0.0 0.00 0.00 0.00 56 1017.9
20260505123737 60 159 0.0 0.0 0.00 0.00 0.00 56 1017.9
20260505123237 61 182 0.0 0.0 0.00 0.00 0.00 57 1017.9
20260505123141 61 161 0.0 0.0 0.00 0.00 0.00 57 1017.9
20260505122743 61 186 0.0 0.0 0.00 0.00 0.00 56 1017.9
20260505122254 61 186 0.0 0.0 0.00 0.00 0.00 56 1017.9
20260505121242 61 151 0.0 0.0 0.00 0.00 0.00 55 1018.0
20260505120242 61 172 0.0 0.0 0.00 0.00 0.00 54 1018.0
20260505120130 61 186 0.0 0.0 0.00 0.00 0.00 54 1018.0
20260505115749 61 121 0.0 0.0 0.00 0.00 0.00 54 1017.7
20260505115245 61 163 0.0 0.0 0.00 0.00 0.00 53 1017.7
20260505114739 61 170 0.0 0.0 0.00 0.00 0.00 53 1017.7
20260505114247 61 179 0.0 0.0 0.00 0.00 0.00 53 1017.7
20260505113737 61 142 0.0 0.0 0.00 0.00 0.00 52 1017.7
20260505113254 61 192 0.0 0.0 0.00 0.00 0.00 52 1017.7
20260505112239 61 156 0.0 0.0 0.00 0.00 0.00 51 1017.5
20260505111734 61 142 0.0 0.0 0.00 0.00 0.00 50 1017.5
20260505111244 61 142 0.0 0.0 0.00 0.00 0.00 50 1017.4
20260505110752 61 187 0.0 0.0 0.00 0.00 0.00 49 1017.4
20260505110251 61 118 0.0 0.0 0.00 0.00 0.00 49 1017.4
20260505110135 61 254 0.0 0.0 0.00 0.00 0.00 48 1017.4
20260505101746 61 117 0.0 0.0 0.00 0.00 0.00 47 1016.9
20260505101236 61 154 0.0 0.0 0.00 0.00 0.00 48 1016.6
20260505100250 61 131 0.0 0.0 0.00 0.00 0.00 49 1016.6
20260505100134 61 185 0.0 0.0 0.00 0.00 0.00 49 1016.6
20260505095738 61 173 0.0 0.0 0.00 0.00 0.00 49 1016.5
20260505095247 62 154 0.0 0.0 0.00 0.00 0.00 50 1016.5
20260505094254 62 145 0.0 0.0 0.00 0.00 0.00 49 1016.4
20260505093743 62 135 0.0 0.0 0.00 0.00 0.00 49 1016.4
20260505093255 62 216 0.0 0.0 0.00 0.00 0.00 49 1016.4
20260505092746 62 156 0.0 0.0 0.00 0.00 0.00 48 1016.2
20260505092236 62 161 0.0 0.0 0.00 0.00 0.00 48 1016.2
20260505091750 63 172 0.0 0.0 0.00 0.00 0.00 47 1016.2
20260505091242 63 220 0.0 0.0 0.00 0.00 0.00 47 1016.0
20260505090741 63 145 0.0 0.0 0.00 0.00 0.00 46 1016.0
20260505090256 63 186 0.0 0.0 0.00 0.00 0.00 45 1016.0
20260505090140 63 135 0.0 0.0 0.00 0.00 0.00 45 1016.0
20260505085736 63 259 0.0 0.0 0.00 0.00 0.00 44 1015.8
20260505085246 63 148 0.0 0.0 0.00 0.00 0.00 44 1015.8
20260505084739 63 186 0.0 0.0 0.00 0.00 0.00 44 1015.8
20260505084249 64 137 0.0 0.0 0.00 0.00 0.00 43 1015.6
20260505083739 64 152 0.0 0.0 0.00 0.00 0.00 43 1015.6
20260505083254 64 135 0.0 0.0 0.00 0.00 0.00 41 1015.6
20260505082741 65 151 0.0 0.0 0.00 0.00 0.00 40 1015.6
20260505082252 65 165 0.0 0.0 0.00 0.00 0.00 38 1015.6
20260505081746 65 135 0.0 0.0 0.00 0.00 0.00 38 1015.6
20260505080738 66 165 0.0 0.0 0.00 0.00 0.00 35 1015.5
20260505080255 66 159 0.0 0.0 0.00 0.00 0.00 33 1015.5
20260505080139 66 231 0.0 0.0 0.00 0.00 0.00 34 1015.5
20260505075739 66 152 0.0 0.0 0.00 0.00 0.00 33 1015.4
20260505075251 66 187 0.0 0.0 0.00 0.00 0.00 33 1015.4
20260505074746 67 230 0.0 0.0 0.00 0.00 0.00 32 1015.4
20260505073754 67 145 0.0 0.0 0.00 0.00 0.00 30 1015.3
20260505073251 67 185 0.0 0.0 0.00 0.00 0.00 30 1015.3
20260505073135 68 176 0.0 0.0 0.00 0.00 0.00 31 1015.3
20260505072736 68 168 0.0 0.0 0.00 0.00 0.00 32 1015.1
20260505071741 68 154 0.0 0.0 0.00 0.00 0.00 31 1015.1
20260505071252 68 221 0.0 0.0 0.00 0.00 0.00 31 1014.9
20260505070258 69 206 0.0 0.0 0.00 0.00 0.00 31 1014.9
20260505065745 69 186 0.0 0.0 0.00 0.00 0.00 30 1014.9
20260505065237 69 132 0.0 0.0 0.00 0.00 0.00 30 1014.9
20260505064750 69 156 0.0 0.0 0.00 0.00 0.00 29 1014.9
20260505064239 70 234 0.0 0.0 0.00 0.00 0.00 28 1014.7
20260505063749 70 141 0.0 0.0 0.00 0.00 0.00 28 1014.7
20260505063251 70 190 0.0 0.0 0.00 0.00 0.00 27 1014.7
20260505061746 71 172 0.0 0.0 0.00 0.00 0.00 26 1014.8
20260505061235 71 155 0.0 0.0 0.00 0.00 0.00 26 1014.5
20260505060735 72 186 0.0 0.0 0.00 0.00 0.00 25 1014.5
20260505060142 72 163 0.0 0.0 0.00 0.00 0.00 25 1014.5
20260505055742 72 186 0.0 0.0 0.00 0.00 0.00 25 1014.4
20260505055246 73 179 0.0 0.0 0.00 0.00 0.00 24 1014.4
20260505054738 74 176 0.0 0.0 0.00 0.00 0.00 24 1014.4
20260505054250 75 186 0.0 0.0 0.00 0.00 0.00 22 1014.3
20260505053740 75 134 0.0 0.0 0.00 0.00 0.00 20 1014.3
20260505053144 75 214 0.0 0.0 0.00 0.00 0.00 20 1014.3
20260505052241 75 165 0.0 0.0 0.00 0.00 0.00 17 1014.4
20260505051737 75 252 0.0 0.0 0.00 0.00 0.00 17 1014.4
20260505051245 77 120 0.0 0.0 0.00 0.00 0.00 14 1014.7
20260505050743 77 100 0.0 0.0 0.00 0.00 0.00 14 1014.7
20260505050240 76 111 0.0 0.0 0.00 0.00 0.00 14 1014.7
20260505050127 76 104 0.0 0.0 0.00 0.00 0.00 14 1014.7
20260505041747 75 244 0.0 0.0 0.00 0.00 0.00 14 1015.0
20260505041239 76 245 0.0 0.0 0.00 0.00 0.00 14 1015.0
20260505040748 76 115 0.0 0.0 0.00 0.00 0.00 13 1015.0
20260505040246 76 79 0.0 0.0 0.00 0.00 0.00 13 1015.0
20260505040130 76 83 0.0 0.0 0.00 0.00 0.00 13 1015.0